QPF
0.00 0.00 0.00 0.00 0.00 0.00 0.00 0.00 0.00 0.00 0.00 0.00 0.00 0.00 0.00 0.00 0.00 0.00 0.00 0.00 0.00 0.00 0.00 0.00 0.00 0.00 0.00 0.00 0.00 0.00 0.00 0.00 0.00 0.00 0.00 0.00 0.00 0.00 0.00 0.00 0.00 0.00 0.00 0.00 0.00
0.00 0.00 0.00 0.00 0.00 0.00 0.00 0.00 0.00 0.00 0.00 0.00 0.00 0.00 0.00 0.00 0.00 0.00 0.00 0.00 0.00 0.00 0.00 0.00 0.00 0.00 0.00 0.00 0.00 0.00 0.00 0.00 0.00 0.00 0.00 0.00 0.00 0.00 0.00 0.00 0.00 0.00 0.00 0.00 0.00
0.00 0.00 0.00 0.00 0.00 0.00 0.00 0.00 0.00 0.00 0.00 0.00 0.00 0.00 0.00 0.00 0.00 0.00 0.00 0.00 0.00 0.00 0.00 0.00 0.00 0.00 0.00 0.00 0.00 0.00 0.00 0.00 0.00 0.00 0.00 0.00 0.00 0.00 0.00 0.00 0.00 0.00 0.00 0.00 0.00
0.00 0.00 0.00 0.00 0.00 0.00 0.00 0.00 0.00 0.00 0.00 0.00 0.00 0.00 0.00 0.00 0.00 0.00 0.00 0.00 0.00 0.00 0.00 0.00 0.00 0.00 0.00 0.00 0.00 0.00 0.00 0.00 0.00 0.00 0.00 0.00 0.00 0.00 0.00 0.00 0.00 0.00 0.00 0.00 0.00
0.00 0.00 0.00 0.00 0.00 0.00 0.00 0.00 0.00 0.00 0.00 0.00 0.00 0.00 0.00 0.00 0.00 0.00 0.00 0.00 0.00 0.00 0.00 0.00 0.00 0.00 0.00 0.00 0.00 0.00 0.00 0.00 0.00 0.00 0.00 0.00 0.00 0.00 0.00 0.00 0.00 0.00 0.00 0.00 0.00
0.00 0.00 0.00 0.00 0.00 0.00 0.00 0.00 0.00 0.00 0.00 0.00 0.00 0.00 0.00 0.00 0.00 0.00 0.00 0.00 0.00 0.00 0.00 0.00 0.00 0.00 0.00 0.00 0.00 0.00 0.00 0.00 0.00 0.00 0.00 0.00 0.00 0.00 0.00 0.00 0.00 0.00 0.00 0.00 0.00
0.00 0.00 0.00 0.00 0.00 0.00 0.00 0.00 0.00 0.00 0.00 0.00 0.00 0.00 0.00 0.00 0.00 0.00 0.00 0.00 0.00 0.00 0.00 0.00 0.00 0.00 0.00 0.00 0.00 0.00 0.00 0.00 0.00 0.00 0.00 0.00 0.00 0.00 0.00 0.00 0.00 0.00 0.00 0.00 0.00
0.00 0.00 0.00 0.00 0.00 0.00 0.00 0.00 0.00 0.00 0.00 0.00 0.00 0.00 0.00 0.00 0.00 0.00 0.00 0.00 0.00 0.00 0.00 0.00 0.00 0.00 0.00 0.00 0.00 0.00 0.00 0.00 0.00 0.00 0.00 0.00 0.00 0.00 0.00 0.00 0.00 0.00 0.00 0.00 0.00
0.00 0.00 0.00 0.00 0.00 0.00 0.00 0.00 0.00 0.00 0.00 0.00 0.00 0.00 0.00 0.00 0.00 0.00 0.00 0.00 0.00 0.00 0.00 0.00 0.00 0.00 0.00 0.00 0.00 0.00 0.00 0.00 0.00 0.00 0.00 0.00 0.00 0.00 0.00 0.00 0.00 0.00 0.00 0.00 0.00
0.00 0.00 0.00 0.00 0.00 0.00 0.00 0.00 0.00 0.00 0.00 0.00 0.00 0.00 0.00 0.00 0.00 0.00 0.00 0.00 0.00 0.00 0.00 0.00 0.00 0.00 0.00 0.00 0.00 0.00 0.00 0.00 0.00 0.00 0.00 0.00 0.00 0.00 0.00 0.00 0.00 0.00 0.00 0.00 0.00
0.00 0.00 0.00 0.00 0.00 0.00 0.00 0.00 0.00 0.00 0.00 0.00 0.00 0.00 0.00 0.00 0.00 0.00 0.00 0.00 0.00 0.00 0.00 0.00 0.00 0.00 0.00 0.00 0.00 0.00 0.00 0.00 0.00 0.00 0.00 0.00 0.00 0.00 0.00 0.00 0.00 0.00 0.00 0.00 0.00
0.00 0.00 0.00 0.00 0.00 0.00 0.00 0.00 0.00 0.00 0.00 0.00 0.00 0.00 0.00 0.00 0.00 0.00 0.00 0.00 0.00 0.00 0.00 0.00 0.00 0.00 0.00 0.00 0.00 0.00 0.00 0.00 0.00 0.00 0.00 0.00 0.00 0.00 0.00 0.00 0.00 0.00 0.00 0.00 0.00
0.00 0.00 0.00 0.00 0.00 0.00 0.00 0.00 0.00 0.00 0.00 0.00 0.00 0.00 0.00 0.00 0.00 0.00 0.00 0.00 0.00 0.00 0.00 0.00 0.00 0.00 0.00 0.00 0.00 0.00 0.00 0.00 0.00 0.00 0.00 0.00 0.00 0.00 0.00 0.00 0.00 0.00 0.00 0.00 0.00
0.00 0.00 0.00 0.00 0.00 0.00 0.00 0.00 0.00 0.00 0.00 0.00 0.00 0.00 0.00 0.00 0.00 0.00 0.00 0.00 0.00 0.00 0.00 0.00 0.00 0.00 0.00 0.00 0.00 0.00 0.00 0.00 0.00 0.00 0.00 0.00 0.00 0.00 0.00 0.00 0.00 0.00 0.00 0.00 0.00
0.00 0.00 0.00 0.00 0.00 0.00 0.00 0.00 0.00 0.00 0.00 0.00 0.00 0.00 0.00 0.00 0.00 0.00 0.00 0.00 0.00 0.00 0.00 0.00 0.00 0.00 0.00 0.00 0.00 0.00 0.00 0.00 0.00 0.00 0.00 0.00 0.00 0.00 0.00 0.00 0.00 0.00 0.00 0.00 0.00
0.00 0.00 0.00 0.00 0.00 0.00 0.00 0.00 0.00 0.00 0.00 0.00 0.00 0.00 0.00 0.00 0.00 0.00 0.00 0.00 0.00 0.00 0.00 0.00 0.00 0.00 0.00 0.00 0.00 0.00 0.00 0.00 0.00 0.00 0.00 0.00 0.00 0.00 0.00 0.00 0.00 0.00 0.00 0.00 0.00
0.00 0.00 0.00 0.00 0.00 0.00 0.00 0.00 0.00 0.00 0.00 0.00 0.00 0.00 0.00 0.00 0.00 0.00 0.00 0.00 0.00 0.00 0.00 0.00 0.00 0.00 0.00 0.00 0.00 0.00 0.00 0.00 0.00 0.00 0.00 0.00 0.00 0.00 0.00 0.00 0.00 0.00 0.00 0.00 0.00
0.00 0.00 0.00 0.00 0.00 0.00 0.00 0.00 0.00 0.00 0.00 0.00 0.00 0.00 0.00 0.00 0.00 0.00 0.00 0.00 0.00 0.00 0.00 0.00 0.00 0.00 0.00 0.00 0.00 0.00 0.00 0.00 0.00 0.00 0.00 0.00 0.00 0.00 0.00 0.00 0.00 0.00 0.00 0.00 0.00
0.00 0.00 0.00 0.00 0.00 0.00 0.00 0.00 0.00 0.00 0.00 0.00 0.00 0.00 0.00 0.00 0.00 0.00 0.00 0.00 0.00 0.00 0.00 0.00 0.00 0.00 0.00 0.00 0.00 0.00 0.00 0.00 0.00 0.00 0.00 0.00 0.00 0.00 0.00 0.00 0.00 0.00 0.00 0.00 0.00
0.00 0.00 0.00 0.00 0.00 0.00 0.00 0.00 0.00 0.00 0.00 0.00 0.00 0.00 0.00 0.00 0.00 0.00 0.00 0.00 0.00 0.00 0.00 0.00 0.00 0.00 0.00 0.00 0.00 0.00 0.00 0.00 0.00 0.00 0.00 0.00 0.00 0.00 0.00 0.00 0.00 0.00 0.00 0.00 0.00
0.00 0.00 0.00 0.00 0.00 0.00 0.00 0.00 0.00 0.00 0.00 0.00 0.00 0.00 0.00 0.00 0.00 0.00 0.00 0.00 0.00 0.00 0.00 0.00 0.00 0.00 0.00 0.00 0.00 0.00 0.00 0.00 0.00 0.00 0.00 0.00 0.00 0.00 0.00 0.00 0.00 0.00 0.00 0.00 0.00
0.00 0.00 0.00 0.00 0.00 0.00 0.00 0.00 0.00 0.00 0.00 0.00 0.00 0.00 0.00 0.00 0.00 0.00 0.00 0.00 0.00 0.00 0.00 0.00 0.00 0.00 0.00 0.00 0.00 0.00 0.00 0.00 0.00 0.00 0.00 0.00 0.00 0.00 0.00 0.00 0.00 0.00 0.00 0.00 0.00
0.00 0.00 0.00 0.00 0.00 0.00 0.00 0.00 0.00 0.00 0.00 0.00 0.00 0.00 0.00 0.00 0.00 0.00 0.00 0.00 0.00 0.00 0.00 0.00 0.00 0.00 0.00 0.00 0.00 0.00 0.00 0.00 0.00 0.00 0.00 0.00 0.00 0.00 0.00 0.00 0.00 0.00 0.00 0.00 0.00
0.00 0.00 0.00 0.00 0.00 0.00 0.00 0.00 0.00 0.00 0.00 0.00 0.00 0.00 0.00 0.00 0.00 0.00 0.00 0.00 0.00 0.00 0.00 0.00 0.00 0.00 0.00 0.00 0.00 0.00 0.00 0.00 0.00 0.00 0.00 0.00 0.00 0.00 0.00 0.00 0.01 0.01 0.01 0.01 0.01
0.00 0.00 0.00 0.00 0.00 0.00 0.00 0.00 0.00 0.00 0.00 0.00 0.00 0.00 0.00 0.00 0.00 0.00 0.00 0.00 0.00 0.00 0.00 0.00 0.00 0.00 0.00 0.00 0.00 0.00 0.00 0.00 0.00 0.00 0.00 0.00 0.00 0.00 0.00 0.00 0.02 0.05 0.05 0.05 0.06
0.00 0.00 0.00 0.00 0.00 0.00 0.00 0.00 0.00 0.00 0.00 0.00 0.00 0.00 0.00 0.00 0.00 0.00 0.00 0.00 0.00 0.00 0.00 0.00 0.00 0.00 0.00 0.00 0.00 0.00 0.00 0.00 0.00 0.00 0.00 0.00 0.00 0.00 0.00 0.01 0.05 0.05 0.05 0.06 0.06
0.00 0.00 0.00 0.00 0.00 0.00 0.00 0.00 0.00 0.00 0.00 0.00 0.00 0.00 0.00 0.00 0.00 0.00 0.00 0.00 0.00 0.00 0.00 0.00 0.00 0.02 0.01 0.00 0.01 0.01 0.00 0.00 0.00 0.00 0.00 0.00 0.00 0.00 0.01 0.02 0.03 0.05 0.05 0.04 0.03
MSLP
1014.63 1014.51 1014.37 1014.31 1014.15 1013.87 1013.77 1013.85 1013.68 1013.56 1013.38 1013.09 1012.98 1012.69 1012.66 1012.48 1012.30 1012.20 1012.23 1012.29 1012.00 1011.69 1011.68 1011.77 1011.63 1011.64 1011.73 1012.35 1012.74 1013.05 1014.11 1014.63 1013.98 1013.86 1013.79 1013.81 1013.95 1013.91 1014.12 1014.57 1015.11 1015.62 1016.31 1017.10 1017.72
1014.54 1014.51 1014.24 1014.28 1014.09 1013.70 1013.91 1013.73 1013.53 1013.39 1013.41 1013.19 1012.82 1012.69 1012.65 1012.57 1012.53 1012.32 1012.09 1011.85 1011.69 1011.68 1011.74 1011.81 1011.89 1011.82 1012.27 1012.57 1012.98 1013.37 1014.22 1014.01 1013.94 1014.02 1014.14 1014.21 1014.32 1014.33 1014.44 1014.71 1015.24 1015.95 1016.76 1017.55 1018.26
1014.50 1014.26 1014.27 1014.25 1013.91 1013.86 1013.75 1013.53 1013.24 1013.38 1013.37 1013.11 1012.66 1012.69 1012.61 1012.73 1012.83 1012.28 1011.93 1011.71 1011.59 1011.70 1011.93 1011.90 1011.89 1011.91 1012.30 1012.61 1013.12 1013.53 1013.87 1013.98 1014.15 1014.27 1014.55 1014.62 1014.69 1014.77 1014.81 1014.87 1015.31 1015.88 1016.84 1017.95 1018.62
1014.44 1014.46 1014.32 1014.01 1013.83 1013.89 1013.43 1013.38 1013.21 1013.43 1013.10 1012.85 1012.65 1012.64 1012.67 1012.87 1013.00 1012.18 1011.89 1011.65 1011.54 1011.77 1012.00 1011.96 1011.89 1012.10 1012.56 1012.83 1013.15 1013.56 1013.97 1014.16 1014.46 1014.58 1014.80 1015.09 1015.20 1015.12 1015.23 1014.98 1015.20 1015.65 1016.33 1017.55 1018.41
1014.67 1014.40 1014.20 1014.02 1013.77 1013.53 1013.45 1013.31 1013.33 1013.17 1012.88 1012.63 1012.62 1012.63 1012.84 1012.82 1012.53 1012.15 1011.87 1011.71 1011.74 1011.91 1012.15 1012.10 1012.01 1012.21 1012.66 1013.00 1013.27 1013.67 1014.14 1014.37 1014.67 1014.86 1014.99 1015.22 1015.35 1015.51 1015.28 1015.30 1015.31 1015.73 1016.48 1017.19 1018.05
1014.68 1014.38 1014.06 1013.74 1013.51 1013.43 1013.32 1013.25 1013.22 1012.91 1012.67 1012.58 1012.56 1012.65 1012.80 1012.68 1012.26 1012.21 1012.01 1011.85 1012.08 1012.10 1012.33 1012.28 1012.28 1012.31 1012.82 1013.27 1013.52 1013.94 1014.18 1014.56 1014.89 1015.15 1015.28 1015.51 1015.53 1015.64 1015.34 1015.49 1015.73 1016.18 1016.70 1017.30 1017.84
1014.56 1014.09 1013.84 1013.50 1013.45 1013.31 1013.10 1013.11 1012.93 1012.71 1012.63 1012.62 1012.56 1012.59 1012.39 1012.41 1012.17 1012.12 1012.08 1012.30 1012.42 1012.32 1012.39 1012.57 1012.46 1012.63 1013.10 1013.61 1013.85 1014.03 1014.43 1014.77 1015.31 1015.52 1015.67 1015.84 1015.87 1015.77 1015.72 1015.87 1016.04 1016.39 1016.85 1017.41 1017.90
1014.26 1013.94 1013.57 1013.46 1013.30 1013.15 1013.01 1012.80 1012.68 1012.64 1012.74 1012.64 1012.45 1012.51 1012.30 1012.08 1012.11 1012.06 1012.28 1012.46 1012.48 1012.33 1012.38 1012.53 1012.51 1013.06 1013.65 1014.07 1014.30 1014.65 1014.87 1015.40 1015.74 1016.01 1016.01 1016.01 1016.03 1015.78 1016.04 1016.29 1016.47 1016.55 1016.89 1017.28 1017.74
1014.22 1013.84 1013.58 1013.37 1013.19 1013.00 1012.67 1012.51 1012.53 1012.64 1012.65 1012.60 1012.62 1012.37 1012.32 1012.09 1012.18 1012.44 1012.64 1012.84 1012.73 1012.49 1012.55 1012.57 1012.86 1014.00 1014.40 1014.77 1015.27 1015.57 1015.82 1016.11 1016.25 1016.75 1016.81 1016.67 1016.54 1016.14 1016.30 1016.60 1016.86 1016.89 1016.90 1017.17 1017.56
1014.34 1013.91 1013.57 1013.36 1013.08 1012.74 1012.55 1012.42 1012.45 1012.60 1012.65 1012.54 1012.55 1012.80 1012.44 1012.58 1012.50 1012.62 1012.79 1012.88 1012.81 1012.72 1012.89 1013.09 1013.92 1014.74 1015.47 1015.65 1016.08 1016.11 1016.29 1016.59 1017.14 1017.39 1017.29 1017.30 1017.07 1016.64 1016.57 1016.75 1017.04 1017.05 1016.81 1017.04 1017.30
1014.27 1013.85 1013.57 1013.27 1012.97 1012.65 1012.57 1012.76 1013.28 1013.23 1012.86 1012.91 1012.90 1012.83 1012.81 1012.81 1012.69 1012.89 1013.11 1013.06 1012.93 1013.05 1013.57 1013.98 1014.84 1015.44 1015.78 1015.93 1016.00 1016.26 1016.73 1017.27 1017.34 1017.89 1018.00 1017.85 1017.68 1016.95 1016.65 1016.77 1017.00 1017.16 1016.91 1016.85 1017.14
1014.25 1013.81 1013.43 1013.17 1012.92 1012.69 1012.83 1013.50 1013.84 1014.17 1013.60 1013.14 1012.97 1012.92 1012.88 1012.97 1013.04 1013.30 1013.39 1013.51 1013.30 1013.65 1014.06 1014.76 1015.35 1015.78 1016.05 1016.24 1016.40 1016.77 1017.33 1017.75 1017.88 1018.32 1018.73 1018.46 1017.82 1016.97 1016.61 1016.77 1017.18 1017.39 1017.26 1017.14 1017.24
1014.20 1013.77 1013.33 1013.03 1012.76 1012.97 1013.58 1014.21 1014.23 1014.26 1013.89 1013.32 1013.05 1012.97 1013.09 1013.19 1013.46 1013.67 1013.69 1013.66 1013.85 1014.32 1014.73 1015.38 1016.19 1016.27 1016.47 1016.83 1017.14 1017.49 1017.98 1018.52 1019.30 1019.23 1019.53 1019.30 1018.14 1017.02 1016.45 1016.60 1016.99 1017.39 1017.51 1017.37 1017.46
1014.25 1013.73 1013.30 1012.83 1013.24 1013.75 1014.14 1014.27 1014.19 1014.20 1014.17 1013.53 1013.13 1013.08 1013.15 1013.21 1013.73 1013.83 1013.91 1014.09 1014.50 1014.94 1015.50 1016.17 1016.62 1016.81 1017.13 1017.44 1017.82 1018.44 1018.73 1019.37 1020.14 1020.73 1021.42 1020.45 1019.67 1017.55 1016.73 1016.76 1017.29 1017.75 1017.92 1017.96 1017.91
1014.17 1013.61 1013.27 1012.70 1013.49 1014.08 1014.54 1014.23 1014.08 1014.05 1014.58 1013.72 1013.20 1013.13 1013.19 1013.62 1013.97 1013.95 1014.16 1014.05 1014.81 1015.60 1016.31 1016.76 1017.19 1017.51 1017.83 1018.03 1018.37 1019.19 1019.58 1020.32 1021.22 1022.21 1022.62 1021.54 1021.11 1017.65 1017.25 1017.09 1017.41 1017.96 1018.31 1018.31 1018.35
1014.06 1013.57 1013.22 1013.48 1013.92 1014.61 1014.46 1014.23 1014.15 1014.60 1014.23 1013.56 1013.33 1013.41 1013.53 1013.64 1013.90 1014.07 1014.29 1014.64 1015.40 1016.05 1016.76 1017.49 1017.80 1018.05 1018.29 1018.72 1019.08 1019.78 1020.49 1021.41 1022.37 1023.01 1023.37 1022.24 1021.49 1018.38 1017.47 1016.82 1017.44 1018.18 1018.64 1018.76 1018.78
1014.05 1013.66 1013.38 1013.87 1014.58 1014.50 1014.53 1014.68 1015.27 1014.84 1014.16 1014.16 1013.90 1013.89 1014.09 1014.16 1014.21 1014.43 1014.91 1015.52 1016.17 1016.90 1017.55 1018.15 1018.43 1018.81 1019.04 1019.55 1020.06 1020.60 1021.58 1022.70 1023.51 1023.89 1023.22 1022.33 1021.88 1017.84 1017.19 1017.32 1017.70 1018.62 1019.24 1019.44 1019.41
1014.00 1013.82 1014.32 1014.49 1014.65 1014.57 1014.73 1015.06 1015.77 1014.92 1014.67 1014.54 1014.41 1014.20 1014.33 1014.55 1014.65 1014.90 1015.50 1016.29 1016.83 1017.36 1018.73 1019.08 1019.16 1019.60 1019.99 1020.33 1020.72 1021.38 1021.96 1023.23 1023.93 1024.66 1023.56 1022.73 1020.98 1017.99 1018.09 1018.40 1018.80 1019.32 1019.74 1019.99 1020.00
1014.18 1014.47 1014.73 1014.86 1014.64 1014.64 1015.20 1016.03 1015.77 1015.53 1015.47 1015.24 1014.83 1014.73 1014.77 1014.93 1015.25 1015.42 1015.99 1016.74 1017.13 1017.68 1018.54 1019.33 1019.75 1020.26 1020.58 1021.01 1021.72 1022.38 1022.67 1022.90 1024.08 1025.28 1024.34 1021.57 1019.74 1018.67 1018.95 1019.41 1019.79 1020.18 1020.49 1020.78 1020.83
1014.56 1015.01 1015.24 1014.93 1014.77 1014.91 1015.81 1016.46 1016.44 1016.22 1016.04 1015.86 1015.69 1015.45 1015.43 1015.43 1015.69 1015.97 1016.11 1016.97 1017.73 1018.34 1018.75 1019.38 1020.45 1020.85 1021.36 1021.77 1022.44 1022.61 1023.25 1023.79 1024.37 1024.76 1023.96 1021.71 1020.94 1019.18 1019.59 1020.11 1020.65 1021.06 1021.37 1021.57 1021.62
1014.89 1015.33 1015.04 1014.89 1014.95 1015.69 1016.95 1017.04 1016.76 1016.70 1016.72 1016.60 1016.24 1016.10 1016.08 1016.17 1016.34 1016.63 1016.76 1017.29 1017.87 1018.65 1019.09 1020.07 1020.86 1021.81 1022.01 1022.44 1022.76 1023.80 1023.91 1024.42 1024.39 1024.25 1023.74 1022.65 1019.84 1018.92 1019.36 1020.12 1020.94 1021.53 1021.83 1022.01 1022.17
1015.29 1016.02 1015.21 1015.06 1016.13 1017.76 1017.82 1017.40 1017.15 1017.11 1017.02 1016.99 1016.94 1016.80 1016.78 1016.80 1016.93 1017.17 1017.34 1017.76 1018.25 1018.73 1019.61 1020.38 1021.17 1022.07 1022.08 1023.14 1023.56 1023.77 1023.91 1023.97 1024.30 1024.19 1023.63 1023.01 1019.75 1019.21 1019.92 1020.73 1021.28 1021.93 1022.23 1022.36 1022.28
1015.93 1016.23 1015.30 1015.16 1017.08 1018.26 1018.14 1017.88 1017.74 1017.68 1017.65 1017.67 1017.56 1017.52 1017.60 1017.70 1017.92 1017.69 1017.75 1018.33 1018.61 1019.08 1019.64 1020.36 1021.04 1021.77 1022.05 1023.41 1023.78 1024.02 1024.09 1023.93 1023.84 1023.28 1022.47 1022.24 1019.23 1019.36 1020.09 1020.88 1021.28 1021.77 1022.03 1022.49 1022.52
1016.86 1017.37 1017.02 1017.32 1018.54 1018.92 1019.05 1018.97 1018.66 1018.50 1018.53 1018.53 1018.61 1018.51 1018.55 1018.61 1018.58 1018.48 1018.43 1018.63 1018.83 1019.26 1019.69 1020.15 1020.82 1021.06 1021.00 1021.30 1022.09 1023.42 1023.43 1023.41 1023.11 1022.71 1021.11 1018.67 1018.50 1019.38 1019.89 1020.48 1021.11 1021.53 1021.88 1022.50 1022.92
1017.94 1019.70 1019.97 1019.70 1019.88 1020.01 1019.89 1019.97 1019.75 1019.62 1019.41 1019.32 1019.52 1019.81 1020.01 1020.21 1019.84 1019.56 1019.43 1019.36 1019.28 1019.51 1019.96 1020.34 1020.68 1020.44 1019.96 1020.21 1020.94 1021.33 1021.95 1022.34 1022.07 1020.64 1019.97 1017.28 1017.85 1018.29 1018.51 1019.11 1019.95 1020.91 1021.78 1022.53 1023.05
1019.47 1020.09 1020.45 1021.04 1020.90 1020.75 1020.95 1021.37 1020.99 1020.69 1020.63 1020.45 1020.63 1020.86 1020.92 1021.18 1021.22 1021.10 1020.77 1020.50 1020.11 1020.15 1020.43 1020.78 1020.23 1020.20 1019.78 1019.97 1020.31 1020.09 1020.83 1021.11 1020.44 1019.73 1018.80 1018.24 1017.15 1018.00 1018.55 1019.15 1020.18 1020.92 1021.83 1022.52 1023.04
1020.75 1020.56 1020.62 1022.14 1022.11 1022.15 1022.60 1022.21 1022.00 1021.73 1021.56 1021.51 1021.63 1021.64 1021.73 1021.99 1022.01 1021.46 1021.25 1021.00 1020.67 1020.94 1021.02 1021.14 1021.01 1020.81 1019.05 1019.68 1020.13 1019.77 1019.54 1019.53 1019.41 1019.20 1019.26 1019.06 1018.21 1018.55 1019.34 1019.79 1020.49 1021.16 1021.90 1022.59 1023.28
Thickness
5690 5692 5694 5695 5696 5699 5699 5698 5699 5698 5699 5700 5699 5700 5697 5697 5697 5696 5691 5691 5692 5694 5694 5693 5694 5693 5691 5685 5683 5679 5657 5652 5669 5666 5671 5671 5671 5672 5672 5668 5665 5663 5662 5657 5648
5689 5690 5694 5693 5695 5699 5696 5697 5698 5698 5695 5696 5698 5697 5695 5694 5693 5690 5694 5693 5692 5691 5690 5688 5685 5686 5675 5677 5672 5664 5648 5662 5665 5663 5664 5662 5663 5663 5665 5663 5661 5658 5649 5642 5639
5688 5691 5691 5691 5695 5695 5695 5697 5699 5695 5693 5694 5697 5694 5693 5691 5687 5688 5692 5691 5690 5689 5685 5684 5682 5681 5673 5673 5666 5660 5655 5661 5659 5657 5654 5655 5656 5652 5657 5658 5657 5656 5648 5634 5629
5687 5687 5688 5691 5692 5692 5696 5696 5696 5691 5693 5694 5694 5692 5690 5687 5678 5688 5689 5690 5689 5686 5682 5679 5678 5671 5663 5663 5662 5659 5655 5655 5651 5650 5650 5649 5645 5649 5650 5656 5654 5652 5644 5633 5627
5683 5686 5687 5689 5691 5693 5693 5693 5690 5690 5692 5693 5692 5690 5687 5684 5683 5688 5687 5687 5685 5682 5676 5675 5673 5669 5661 5659 5658 5655 5650 5649 5646 5645 5645 5644 5645 5645 5644 5648 5646 5644 5637 5632 5626
5681 5684 5687 5689 5691 5691 5691 5689 5688 5690 5691 5691 5690 5687 5685 5679 5686 5685 5685 5683 5679 5677 5672 5671 5670 5668 5659 5655 5654 5650 5648 5646 5643 5642 5641 5641 5642 5640 5650 5641 5644 5639 5632 5625 5622
5679 5684 5686 5688 5687 5687 5688 5686 5687 5689 5689 5688 5687 5686 5686 5682 5685 5683 5682 5677 5675 5674 5671 5669 5670 5668 5661 5654 5651 5649 5648 5645 5636 5636 5639 5633 5643 5640 5641 5636 5640 5638 5629 5621 5616
5679 5681 5684 5684 5684 5685 5685 5686 5686 5686 5684 5684 5685 5684 5679 5685 5684 5681 5677 5674 5672 5673 5672 5670 5670 5661 5656 5651 5645 5642 5638 5634 5636 5629 5634 5636 5632 5643 5632 5624 5628 5629 5625 5619 5613
5675 5678 5680 5681 5682 5682 5685 5685 5684 5683 5681 5681 5681 5682 5677 5683 5679 5676 5673 5669 5668 5671 5670 5669 5664 5650 5647 5640 5632 5627 5631 5632 5631 5618 5623 5631 5627 5636 5625 5621 5619 5615 5618 5615 5610
5670 5674 5676 5677 5679 5682 5682 5683 5681 5679 5678 5679 5678 5674 5676 5672 5674 5672 5670 5667 5666 5666 5664 5660 5646 5639 5626 5628 5610 5633 5631 5627 5621 5619 5612 5618 5616 5619 5620 5620 5609 5605 5607 5611 5607
5667 5671 5672 5674 5677 5679 5679 5676 5670 5669 5671 5671 5669 5669 5669 5670 5671 5668 5664 5664 5663 5658 5651 5646 5640 5634 5636 5629 5628 5625 5623 5618 5617 5607 5611 5614 5597 5611 5616 5615 5607 5602 5602 5610 5604
5663 5667 5670 5671 5673 5675 5673 5667 5665 5664 5665 5665 5665 5665 5666 5665 5664 5661 5660 5659 5659 5649 5647 5639 5637 5630 5625 5625 5624 5620 5616 5609 5612 5603 5602 5593 5595 5607 5617 5615 5603 5597 5595 5600 5599
5660 5663 5667 5669 5671 5670 5663 5659 5657 5657 5658 5661 5661 5661 5660 5661 5655 5655 5655 5653 5650 5644 5639 5635 5628 5623 5624 5618 5618 5613 5609 5608 5599 5590 5585 5575 5610 5617 5617 5612 5600 5589 5587 5589 5592
5656 5660 5663 5667 5665 5659 5656 5655 5654 5653 5636 5654 5655 5656 5656 5654 5651 5649 5647 5648 5640 5637 5630 5626 5618 5619 5616 5615 5606 5614 5597 5594 5589 5573 5572 5568 5574 5607 5610 5609 5597 5578 5575 5572 5578
5653 5658 5660 5664 5658 5653 5652 5652 5651 5651 5602 5650 5651 5653 5650 5647 5644 5645 5641 5644 5636 5627 5623 5626 5612 5612 5610 5609 5598 5597 5584 5580 5562 5522 5517 5570 5540 5595 5598 5604 5599 5580 5570 5565 5563
5650 5654 5657 5655 5652 5647 5647 5647 5647 5623 5600 5642 5643 5640 5641 5640 5638 5638 5636 5631 5623 5620 5607 5602 5595 5598 5600 5587 5586 5571 5571 5554 5534 5526 5523 5514 5539 5582 5586 5596 5591 5576 5561 5555 5552
5646 5649 5652 5648 5644 5642 5642 5640 5617 5597 5637 5634 5632 5628 5626 5628 5630 5628 5624 5601 5604 5611 5613 5599 5595 5581 5580 5586 5575 5565 5558 5530 5530 5513 5552 5521 5519 5583 5589 5582 5579 5562 5549 5542 5538
5642 5643 5639 5638 5637 5636 5634 5628 5622 5629 5626 5621 5621 5622 5624 5616 5620 5618 5614 5607 5595 5590 5544 5581 5591 5577 5563 5559 5556 5566 5535 5523 5527 5537 5556 5528 5528 5570 5560 5544 5543 5538 5534 5530 5525
5635 5633 5632 5630 5631 5630 5625 5591 5612 5616 5613 5612 5616 5616 5616 5611 5607 5608 5605 5566 5587 5583 5581 5562 5591 5551 5549 5548 5544 5549 5537 5532 5486 5480 5461 5530 5541 5551 5536 5531 5527 5524 5518 5511 5507
5626 5623 5622 5623 5624 5620 5606 5605 5609 5603 5602 5603 5611 5607 5608 5603 5603 5601 5600 5572 5580 5569 5558 5571 5559 5544 5537 5536 5529 5526 5518 5519 5475 5501 5488 5521 5499 5552 5523 5519 5512 5509 5498 5491 5488
5617 5617 5617 5617 5616 5604 5590 5587 5599 5592 5591 5596 5598 5595 5595 5594 5590 5587 5590 5581 5575 5559 5551 5518 5531 5541 5533 5527 5516 5501 5485 5482 5484 5480 5482 5470 5516 5503 5509 5507 5497 5487 5479 5473 5468
5604 5608 5610 5609 5600 5555 5580 5590 5590 5587 5581 5583 5580 5581 5581 5579 5579 5575 5576 5574 5547 5547 5542 5528 5504 5507 5543 5478 5465 5480 5487 5478 5497 5474 5484 5483 5501 5496 5478 5468 5461 5456 5461 5458 5455
5595 5592 5602 5602 5589 5571 5573 5582 5577 5578 5574 5572 5572 5567 5562 5565 5558 5559 5563 5542 5540 5543 5513 5505 5500 5482 5518 5483 5472 5460 5442 5433 5457 5452 5482 5469 5511 5489 5476 5460 5445 5445 5447 5440 5439
5582 5589 5583 5570 5554 5560 5569 5565 5569 5556 5556 5553 5551 5550 5550 5549 5541 5536 5546 5535 5531 5529 5526 5512 5485 5500 5521 5512 5472 5463 5440 5446 5448 5465 5454 5501 5518 5472 5471 5458 5448 5443 5437 5424 5415
5559 5544 5545 5537 5548 5545 5542 5539 5548 5540 5535 5531 5536 5526 5512 5511 5521 5527 5527 5517 5517 5515 5501 5489 5475 5488 5496 5497 5473 5481 5455 5452 5457 5471 5484 5518 5479 5461 5458 5458 5444 5430 5417 5409 5402
5547 5538 5532 5527 5532 5539 5519 5513 5521 5519 5516 5522 5517 5508 5512 5500 5509 5504 5493 5498 5497 5490 5481 5462 5467 5451 5445 5476 5462 5475 5470 5439 5457 5469 5465 5472 5481 5424 5428 5429 5418 5409 5398 5392 5384
5526 5529 5527 5511 5511 5509 5501 5505 5503 5500 5503 5497 5496 5494 5493 5482 5469 5472 5468 5472 5474 5470 5462 5450 5451 5450 5477 5468 5457 5459 5456 5462 5444 5403 5422 5447 5446 5422 5413 5408 5399 5391 5383 5372 5363